Tracking 31027 objects as of 19-Jul-2025
HD Live streaming from Space Station
objects crossing your sky now

THORAD AGENA D DEB

Track THORAD AGENA D DEB now!
10-day predictions


NORAD ID: 4451
Int'l Code: 1969-082EW
Perigee: 695.4 km
Apogee: 743.4 km
Inclination: 70.0 °
Period: 99.0 minutes
Semi major axis: 7090 km
RCS: 0.0152 m2 (small)
Launch date: September 30, 1969
Source: United States (US)
Launch site: AIR FORCE WESTERN TEST RANGE (AFWTR)

Note: This is SATELLITE DEBRIS
Your satellite tracking list
KL-BETA B
Track 1 satellite(s)




NASA's NSSDC Master Catalog

Two Line Element Set (TLE):
1 04451U 69082EW  25199.48251675  .00001340  00000-0  32968-3 0  9992
2 04451  70.0337 118.4245 0033827 219.6610 140.2053 14.54106330907164
Source of the keplerian elements: AFSPC